Regional Weather Roundup
Issued by NWS Newport/Morehead, NC

Home | Current Version | Previous Version | Text Only | Print | Product List | Glossary On
Versions: 1 2 3 4 5 6 7 8 9 10 11 12 13 14 15 16 17 18 19 20 21 22 23 24 25 26 27 28 29 30 31 32 33 34 35 36 37 38 39 40 41 42 43 44 45 46 47 48 49 50
000
ASUS42 KMHX 212025
RWRMHX
WEATHER ROUNDUP FOR EASTERN NORTH CAROLINA
NATIONAL WEATHER SERVICE NEWPORT/MOREHEAD CITY NC
300 PM EST TUE NOV 21 2017

NOTE: "FAIR" INDICATES FEW OR NO CLOUDS BELOW 12,000 FEET
WITH NO SIGNIFICANT WEATHER AND/OR OBSTRUCTIONS TO VISIBILITY

NCZ015>017-031-032-045>047-102-103-212100-
NORTH COAST

CITY           SKY/WX    TMP DP  RH WIND       PRES   REMARKS
EDENTON        CLOUDY    62  49  62 CALM      30.16F
ELIZABETH CITY CLOUDY    61  49  64 SE7       30.16F
KITTY HAWK     CLOUDY    58  47  66 CALM      30.16F
MANTEO         CLOUDY    57  45  64 CALM      30.18S

$$

NCZ045>047-081-094-103-104-212100-
CENTRAL COAST

CITY           SKY/WX    TMP DP  RH WIND       PRES   REMARKS
FRISCO         CLOUDY    64  55  72 NE5       30.16F

$$

NCZ095-097-098-100-101-212100-
SOUTHERN COAST

CITY           SKY/WX    TMP DP  RH WIND       PRES   REMARKS
BEAUFORT       CLOUDY    65  54  67 NE7       30.13F
CEDAR ISLAND   NOT AVBL
JACKSONVILLE   CLOUDY    67  54  63 E6        30.12F
PINEY ISLAND     N/A    N/A N/A N/A NE9       30.15
WILMINGTON     PTSUNNY   67  53  61 E7        30.11S


$$

NCZ011>013-027>030-043-044-078>080-089-090>093-098-212100-
COASTAL PLAIN

CITY           SKY/WX    TMP DP  RH WIND       PRES   REMARKS
AHOSKIE        CLOUDY    61  42  50 SE6       30.14S
CLINTON        CLOUDY    66  51  59 CALM      30.12S
ELIZABETHTOWN  NOT AVBL
GOLDSBORO      CLOUDY    64  49  58 E7        30.11S
GREENVILLE     CLOUDY    64  48  55 SE3       30.15S
HAVELOCK       CLOUDY    61  50  67 NE8       30.15
KENANSVILLE    CLOUDY    64  50  59 E3        30.13S
KINSTON        CLOUDY    64  48  55 E5        30.14S
NEW BERN       CLOUDY    64  53  67 E3        30.15S
RICHLANDS      CLOUDY    66  54  65 E5        30.13S
ROCKY MOUNT    CLOUDY    63  46  54 S6        30.13S
WASHINGTON     CLOUDY    63  49  62 E5        30.15S
WHITEVILLE     CLOUDY    66  52  60 NE3       30.09F

$$

AMZ130-135-150-152-154-156-158-170-250-252-270-ANZ085-086-088-633-658-670-212100-
MARINE OBSERVATIONS

STATION/POSITION TIME  TEMP    WIND        PRES    WAVE   SWELL
                       AIR SEA DIR/SP/G            HT/PER HT/PER
                 (UTC) (F)     (DEG/KT/KT) (MB)    (FT/S) (FT/S)
CHESAPEAKE LIGHT NOT AVBL
64 E VA BEACH    1950   59 62   CALM  /  2 1022.7    1/ 3   2/ 7
DUCK             2000   63 59  110/  3/  4 1021.2
2 E DUCK         2000      61                N/A     1/11
OREGON INLET     2000   59 54   30/  5/  6 1021.8
13E OREGON INLT  1948      63                N/A     1/ 8   2/ 8
HATTERAS CG      2000   58 58   40/  6/  8 1021.0
DIAMOND BUOY     2010   71 76  170/ 14/ 17 1021.3
CAPE LOOKOUT     2000           30/ 11/ 12 1020.6
BEAUFORT LAB     2000   64 59   40/  6/  8 1020.3
30 SE NEW RVR IN 2008   69 67  140/  6/ 10 1019.7
30 SE NEW RVR IN 2000      67                N/A     2/ 4
27 SE WRIGHTSVLE 2008   70 68  160/ 12/ 19 1018.8
5 SE WRIGHTSVLE  2008   63 64   60/ 10/ 14 1019.3
225 S CAPE HAT   1950   74 76  120/ 19/ 23 1018.9    6/ 6   2/ 9
41 SE CHARLESTON 2010   73 74  130/ 14/ 16 1017.2

$$



USA.gov is the U.S. government's official web portal to all federal, state and local government web resources and services.